User: anonymous   Login
Location: Aciu?a
(46.2833°N, 22.4500°E)
Time: 03:12:12
(UTC+00:00)
Language:

Cosmos 2322 Rocket - Orbit

View from above orbital plane
View from above orbital plane
View from above satellite
View from above satellite

Ground track
Ground track

The orbit data is extracted from the following two-line orbital elements,

1 23705U 95058B   22019.54883882  .00000020  00000-0  34524-4 0  9998
2 23705  71.0233 109.7239 0014947 262.9577  96.9846 14.15165356354482
Epoch (UTC): 19 January 2022 13:10:19
Eccentricity: 0.0014947
inclination: 71.0233°
perigee height: 831 km
apogee height: 852 km
right ascension of ascending node: 109.7239°
argument of perigee: 262.9577°
revolutions per day: 14.15165356
mean anomaly at epoch: 96.9846°
orbit number at epoch: 35448

The dashed part of the orbit path shows where the satellite is in the earth's shadow,  

DLR